BSB police report ending October 11, 2017

Print
"10/10/2017","00:02","217CR0026454","T/S","POSSESS DRUG PARAPHERNALIA","HARVARD AND HARRISON","",""
"10/10/2017","00:31","217CR0026455","T/S","NO LIABILITY INSURANCE IN EFF.","GEORGE AND FARRAGUT","",""
"10/10/2017","00:32","217CR0026456","SUSPICIOUS ACTIVITY","CRIMINAL CONTEMPT","900 BLK S UTAH","ARREST(s) MADE",""
"10/10/2017","01:03","217CR0026457","T/S","T/S","MARCIA ST AND GARRISON AVE","",""
"10/10/2017","01:50","217CR0026458","DISTURBANCE","DISTURBANCE","2909 CARTER","",""
"10/10/2017","02:26","217CR0026459","BUSINESS CHECK","BUSINESS CHECK","1370 HARRISON/TOWN PUMP","",""
"10/10/2017","03:58","217CR0026460","MEDICAL - EMERGENCY","MEDICAL - EMERGENCY","1828 ADAMS","",""
"10/10/2017","04:32","217CR0026461","T/S","T/S","MONTANA ST AND BEEF TRAIL RD","",""
"10/10/2017","08:04","217CR0026462","T/S","T/S","2900 BLK FLORAL","",""
"10/10/2017","08:06","217CR0026463","ALARM - MEDICAL","ALARM - MEDICAL","************","",""
"10/10/2017","08:09","217CR0026464","DRUGS","DRUGS","************","",""
"10/10/2017","08:14","217CR0026465","T/S","T/S","GRAND AND MONROE","",""
"10/10/2017","08:19","217CR0026466","SUSPICIOUS ACTIVITY","SUSPICIOUS ACTIVITY","CLARKS PARK","",""
"10/10/2017","08:33","217CR0026467","CIVIL PAPER SERVICE","CIVIL PAPER SERVICE","2230 CROSS DR","",""
"10/10/2017","08:37","217CR0026468","SUSPICIOUS ACTIVITY","SUSPICIOUS ACTIVITY","1369 HARRISON","",""
"10/10/2017","08:39","217CR0026469","SUSPICIOUS ACTIVITY","SUSPICIOUS ACTIVITY","2330 S DRIVE","",""
"10/10/2017","08:39","217CR0026470","CIVIL PAPER SERVICE","CIVIL PAPER SERVICE","3523 S WARREN","",""
"10/10/2017","08:44","217CR0026471","DISTURBANCE","DISTURBANCE","24 E COPPER","",""
"10/10/2017","08:45","217CR0026472","VANDALISM/CRIMINAL MISCHIEF","VANDALISM/CRIMINAL MISCHIEF","3345 HARRISON","",""
"10/10/2017","08:49","217CR0026473","DETENTION BUSINESS","DETENTION BUSINESS","************","",""
"10/10/2017","08:59","217CR0026474","CIVIL PAPER SERVICE","CIVIL PAPER SERVICE","155 W QUARTZ","",""
"10/10/2017","09:01","217CR0026475","CIVIL PAPER SERVICE","CIVIL PAPER SERVICE","BUTTE PRE RELEASE","",""
"10/10/2017","09:04","217CR0026476","CIVIL PAPER SERVICE","CIVIL PAPER SERVICE","2225 ARGYLE","",""
"10/10/2017","09:12","217CR0026477","CIVIL PAPER SERVICE","CIVIL PAPER SERVICE","1717 LOWELL","",""
"10/10/2017","09:23","217CR0026478","T/S","T/S @ 1900 BLK HARRISON AVE","1900 BLK HARRISON AVE","",""
"10/10/2017","09:27","217CR0026479","MEDICAL - EMERGENCY","MEDICAL - EMERGENCY","2901 BARTLETT D","",""
"10/10/2017","09:29","217CR0026480","ALARM - FIRE","ALARM - FIRE","3033 BUSCH BUILDING 3","",""
"10/10/2017","09:30","217CR0026481","MEDICAL - EMERGENCY","MEDICAL - EMERGENCY","207 W PARK ST","",""
"10/10/2017","09:41","217CR0026482","CITIZEN AID","CITIZEN AID","225 N ALASKA","",""
"10/10/2017","09:45","217CR0026483","LED BUSINESS","LED BUSINESS","24 E COPPER","",""
"10/10/2017","09:48","217CR0026484","DETENTION BUSINESS","DETENTION BUSINESS","************","",""
"10/10/2017","09:48","217CR0026485","INFORMATION ONLY","INFORMATION ONLY","699 CENTENIAL","",""
"10/10/2017","10:04","217CR0026486","HIT AND RUN","HIT AND RUN","55 BASIN CREEK","",""
"10/10/2017","10:19","217CR0026487","SUSPICIOUS ACTIVITY","SUSPICIOUS ACTIVITY","901 S WASHINGTON","",""
"10/10/2017","10:22","217CR0026488","BURGLARY","THEFT FROM BUILDINGS","3516 S WARREN #48","",""
"10/10/2017","10:38","217CR0026489","ANIMAL COMPLAINT","ANIMAL COMPLAINT","I15 MM 130","",""
"10/10/2017","10:52","217CR0026490","CIVIL PAPER SERVICE","CIVIL PAPER SERVICE","2507 PINE ST","",""
"10/10/2017","10:54","217CR0026491","MEDICAL - EMERGENCY","MEDICAL - EMERGENCY","2123 LOWELL","",""
"10/10/2017","11:19","217CR0026492","RESTRAINING ORDER VIOLATION","VIOLATION OF PROTECTION ORDER","2520 WASHOE ST","",""
"10/10/2017","11:30","217CR0026493","HARASSMENT","HARASSMENT","209 W PARK","",""
"10/10/2017","11:42","217CR0026494","MEDICAL - EMERGENCY","MEDICAL - EMERGENCY","14 S JACKSON","",""
"10/10/2017","11:48","217CR0026495","CITIZEN AID","CITIZEN AID","1314 ADAMS","",""
"10/10/2017","11:50","217CR0026496","FIRE - OTHER","FIRE - OTHER","GILMAN AND HILL AVE","",""
"10/10/2017","11:53","217CR0026497","VEHICLE INSPECTION","VEHICLE INSPECTION","1442 EASY ST","",""
"10/10/2017","12:14","217CR0026499","ATL","ATL","","",""
"10/10/2017","12:17","217CR0026498","T/S","T/S","AMHERST ST AND HANCOCK ST","",""
"10/10/2017","12:27","217CR0026500","THEFT","THEFT FROM MOTOR VEHICLE","BUTTE PLAZA MALL","",""
"10/10/2017","13:09","217CR0026501","DETENTION BUSINESS","DETENTION BUSINESS","************","",""
"10/10/2017","13:13","217CR0026502","ANIMAL COMPLAINT-BITE","ANIMAL COMPLAINT-BITE","823 S MAIN","",""
"10/10/2017","13:17","217CR0026503","ASSIST OTHER AGENCY","ASSIST OTHER AGENCY","MINAH ST AND MAIN ST","",""
"10/10/2017","13:25","217CR0026504","ATL","ATL","3100 BLK HARRISON","",""
"10/10/2017","13:31","217CR0026505","SUSPICIOUS ACTIVITY","SUSPICIOUS ACTIVITY","531 S MONTANA ST","",""
"10/10/2017","13:52","217CR0026506","HARASSMENT","HARASSMENT","207 W PARK ST #24","",""
"10/10/2017","14:18","217CR0026507","VEHICLE INSPECTION","VEHICLE INSPECTION","332 W BOARDMAN","",""
"10/10/2017","14:29","217CR0026508","ANIMAL COMPLAINT","ANIMAL COMPLAINT","651 W GRANITE","",""
"10/10/2017","14:41","217CR0026509","PARKING COMPLAINT","PARKING COMPLAINT","2830 YALE AVE","",""
"10/10/2017","14:54","217CR0026510","WELFARE CHECK","WELFARE CHECK","1855 DEWEY BLVD","",""
"10/10/2017","15:21","217CR0026511","ALL OTHER","VIOLATION OF PROTECTION ORDER","1000 S ARIZONA","",""
"10/10/2017","15:52","217CR0026512","T/S","OPERATING WITHOUT CURRENT REGI","PINE AND ADAMS ST","ARREST(s) MADE",""
"10/10/2017","15:55","217CR0026513","T/S","T/S","2400 BLK GRAND","",""
"10/10/2017","15:56","217CR0026514","CIVIL STANDBY","CIVIL STANDBY","119042 SILVER BOW","",""
"10/10/2017","15:59","217CR0026515","DETENTION BUSINESS","DETENTION BUSINESS","************","",""
"10/10/2017","16:36","217CR0026516","ALL OTHER","ALL OTHER","1636 S WARREN AVE","",""
"10/10/2017","16:49","217CR0026517","T/S","OPERATING WITHOUT CURRENT REGI","KENNEDY AVE AND DEWEY BLVD","",""
"10/10/2017","16:59","217CR0026518","CIVIL PAPER SERVICE","CIVIL PAPER SERVICE","62 W BROADWAY","",""
"10/10/2017","17:10","217CR0026519","MEDICAL - EMERGENCY","MEDICAL - EMERGENCY","207 W PARK #7","",""
"10/10/2017","17:26","217CR0026520","ALL OTHER","ALL OTHER","3400 HILL APT 1005","",""
"10/10/2017","17:43","217CR0026521","UNWANTED PERSON","UNWANTED PERSON","************","",""
"10/10/2017","18:10","217CR0026522","ALARM - BURGLARY","ALARM - BURGLARY","************","",""
"10/10/2017","19:39","217CR0026523","DISTURBANCE","DISTURBANCE","312 SILVER BOW HOMES","",""
"10/10/2017","19:52","217CR0026524","ALARM - BURGLARY","ALARM - BURGLARY","************","",""
"10/10/2017","20:05","217CR0026525","ACCIDENT-MHP","ACCIDENT-MHP","HWY 2 // PONDEROSA","",""
"10/10/2017","20:13","217CR0026526","THEFT","THEFT","3901 HARRISON AVE","",""
"10/10/2017","21:08","217CR0026527","DISTURBANCE","PFMA - MINOR INJ/PHYSICAL CONT","815 13TH ST","ARREST(s) MADE",""
"10/10/2017","21:11","217CR0026528","MEDICAL - EMERGENCY","MEDICAL - EMERGENCY","1725 STUART AVE","",""
"10/10/2017","21:15","217CR0026529","FOUND PROPERTY","FOUND PROPERTY","************","",""
"10/10/2017","21:50","217CR0026530","UNKNOWN PROBLEM","UNKNOWN PROBLEM","100 E FRONT","",""
"10/10/2017","22:36","217CR0026531","DISTURBANCE-NOISE","DISTURBANCE-NOISE","1703 SILVERBOW HOMES","",""
"10/10/2017","22:57","217CR0026532","T/S","SPEEDING","PLATINUM AND ARIZONA","",""
"10/10/2017","23:12","217CR0026533","BUSINESS CHECK","CRIMINAL CONTEMPT","1370 HARRISON TOWN PUMP","ARREST(s) MADE",""
"10/10/2017","23:26","217CR0026534","T/S","NO LIABILITY INSURANCE IN EFF.","PAXSON AND ELIZ WARREN","",""
"10/10/2017","23:33","217CR0026535","BUSINESS CHECK","BUSINESS CHECK","3878 PAXSON AVE HAPPY ENDINGS","",""
"10/10/2017","23:47","217CR0026536","SUSPICIOUS ACTIVITY","POSSESSION OF DANGEROUS DRUGS","WALMART SOUTH PARKING LOT","ARREST(s) MADE",""
"10/11/2017","00:20","217CR0026537","JUVENILE MISC","JUVENILE MISC","************","",""
"10/11/2017","00:22","217CR0026538","ATL","ATL","BUTTE AREA","",""
"10/11/2017","00:31","217CR0026539","UNWANTED PERSON","UNWANTED PERSON","************","",""
"10/11/2017","01:43","217CR0026540","CITIZEN AID","CITIZEN AID","1370 HARRISON/TOWN PUMP","",""
"10/11/2017","02:08","217CR0026541","WANTED PERSON","POSSESS DRUG PARAPHERNALIA","700 ROW SILVERBOW HOMES","ARREST(s) MADE",""
"10/11/2017","02:34","217CR0026542","ALL OTHER","ALL OTHER","910 EVANS #D9","",""
"10/11/2017","02:52","217CR0026543","THEFT","THEFT","3499 HARRISON AVE/HAMPTON INN","",""
"10/11/2017","03:08","217CR0026544","T/S","DRIVE WHILE SUSP. OR REVOKED","531 S MONTANA TOWN PUMP","",""
"10/11/2017","04:18","217CR0026545","DRUGS","DRUGS","************","",""
"10/11/2017","04:37","217CR0026546","SUSPICIOUS ACTIVITY","SUSPICIOUS ACTIVITY","2100 FARRAGUT ST ANN CHURCH","",""
"10/11/2017","05:49","217CR0026547","MEDICAL - EMERGENCY","MEDICAL - EMERGENCY","617 W IRON","",""
"10/11/2017","06:50","217CR0026548","DISTURBANCE","DISTURBANCE","1922 TEXAS","",""